📊 John's Weather Station

Last reading: 2020-10-24 10:32:49

TEMPERATURE

--

Temperature 20 readings
Min Max Average
18.37 °C 21.29 °C 19.89 °C

HUMIDITY

--

Humidity 20 readings
Min Max Average
59.43 % 60.46 % 60.02 %

View Latest 20 Readings

ID Sensor Location Temp Humid Bar Timestamp
35327 BME280 Lounge 21.29 59.43 1024.14 2020-10-24 10:32:49
35326 BME280 Lounge 21.20 59.43 1024.20 2020-10-24 10:22:48
35325 BME280 Lounge 21.09 59.58 1024.00 2020-10-24 10:12:46
35324 BME280 Lounge 20.95 59.68 1024.00 2020-10-24 10:02:45
35323 BME280 Lounge 20.80 59.67 1023.95 2020-10-24 09:52:43
35322 BME280 Lounge 20.65 59.93 1023.95 2020-10-24 09:42:42
35321 BME280 Lounge 20.47 60.09 1023.94 2020-10-24 09:32:41
35320 BME280 Lounge 20.30 60.11 1024.05 2020-10-24 09:22:40
35319 BME280 Lounge 20.12 60.23 1024.13 2020-10-24 09:12:39
35318 BME280 Lounge 19.95 59.94 1023.99 2020-10-24 09:02:37
35317 BME280 Lounge 19.80 59.95 1024.10 2020-10-24 08:52:36
35316 BME280 Lounge 19.66 60.30 1024.14 2020-10-24 08:42:29
35315 BME280 Lounge 19.53 60.45 1024.17 2020-10-24 08:32:23
35314 BME280 Lounge 19.35 60.46 1024.10 2020-10-24 08:22:17
35313 BME280 Lounge 19.17 60.46 1024.05 2020-10-24 08:12:10
35312 BME280 Lounge 18.99 60.35 1023.87 2020-10-24 08:02:04
35311 BME280 Lounge 18.82 60.11 1023.87 2020-10-24 07:51:58
35310 BME280 Lounge 18.68 60.09 1023.75 2020-10-24 07:41:51
35309 BME280 Lounge 18.52 60.07 1023.74 2020-10-24 07:31:45
35308 BME280 Lounge 18.37 60.02 1023.77 2020-10-24 07:21:39